^^
Station Historical Data
 
Daily Summary for November 17, 2018 Units:  Metric    English   Both
« Previous Day
Next Day »
Daily Weekly Monthly Yearly Custom
  Current: High: Low: Average:
Temperature: -9 °C -17.8 °C -9 °C -3 °C
Dew Point: -10.9 °C -17.8 °C -10.9 °C -4.5 °C
Humidity: 86 % Humidity % 81 % 89 %
Wind Speed: 0 km/h 0 km/h 0 km/h 1.6 km/h
Wind Gust: 1.6 km/h 0 km/h - -
Wind:Calm - - NW
Pressure: 1024.3 hPa 0 hPa 1006.3 hPa -
Precipitation: 0 mm      
Historical Graphs
 
 
Tabular Data for November 17, 2018
Time Temperature Dew Point Pressure Wind Wind Speed Wind Gust Humidity Rainfall Rate (Hourly) solar Conditions
-17.8 °C -17.8 °C 0 hPa Calm     Humidity % 0 mm SoftwareType W/m2 Conditions
00:00 -4.3 °C -5.2 °C 1006.3 hPa Calm   3.2 km/h 93 % 0 mm WeatherDisplay:10.37 W/m2 RA
00:05 -4.2 °C -5.2 °C 1006.3 hPa Calm   1.6 km/h 93 % 0 mm WeatherDisplay:10.37 W/m2 RA
00:10 -4.2 °C -5.1 °C 1006.3 hPa Calm   4.8 km/h 93 % 0 mm WeatherDisplay:10.37 W/m2 FEW
00:15 -4.1 °C -5.1 °C 1006.3 hPa Calm   1.6 km/h 93 % 0 mm WeatherDisplay:10.37 W/m2 FEW
00:20 -4.1 °C -5.1 °C 1006.3 hPa Calm     93 % 0 mm WeatherDisplay:10.37 W/m2 FEW
00:25 -4.1 °C -4.9 °C 1006.3 hPa Calm   4.8 km/h 94 % 0 mm WeatherDisplay:10.37 W/m2 FEW
00:30 -4 °C -4.9 °C 1006.3 hPa Calm   1.6 km/h 93 % 0 mm WeatherDisplay:10.37 W/m2 FEW
00:35 -4 °C -4.8 °C 1006.3 hPa Calm   1.6 km/h 94 % 0 mm WeatherDisplay:10.37 W/m2 FEW
00:40 -3.9 °C -4.9 °C 1006.3 hPa NW 1.6 km/h 4.8 km/h 93 % 0 mm WeatherDisplay:10.37 W/m2 FEW
00:45 -3.9 °C -4.7 °C 1006.3 hPa Calm   3.2 km/h 94 % 0 mm WeatherDisplay:10.37 W/m2 FEW
00:50 -3.8 °C -4.7 °C 1006.3 hPa Calm   1.6 km/h 94 % 0 mm WeatherDisplay:10.37 W/m2 FEW
00:55 -3.8 °C -4.6 °C 1006.7 hPa Calm   1.6 km/h 94 % 0 mm WeatherDisplay:10.37 W/m2 FEW
01:00 -3.8 °C -4.6 °C 1006.7 hPa Calm   3.2 km/h 94 % 0 mm WeatherDisplay:10.37 W/m2 FEW
01:05 -3.8 °C -4.6 °C 1006.7 hPa Calm     94 % 0 mm WeatherDisplay:10.37 W/m2 FEW
01:10 -3.7 °C -4.6 °C 1006.7 hPa Calm   3.2 km/h 94 % 0 mm WeatherDisplay:10.37 W/m2 FEW
01:20 -3.7 °C -4.6 °C 1006.7 hPa Calm   1.6 km/h 94 % 0 mm WeatherDisplay:10.37 W/m2 FEW
01:25 -3.7 °C -4.6 °C 1007 hPa Calm   4.8 km/h 94 % 0 mm WeatherDisplay:10.37 W/m2 FEW
01:30 -3.7 °C -4.6 °C 1007.3 hPa West 1.6 km/h 8 km/h 94 % 0 mm WeatherDisplay:10.37 W/m2 FEW
01:35 -3.8 °C -4.6 °C 1007.3 hPa Calm   6.4 km/h 94 % 0 mm WeatherDisplay:10.37 W/m2 FEW
01:40 -3.8 °C -4.6 °C 1007.7 hPa Calm   8 km/h 94 % 0 mm WeatherDisplay:10.37 W/m2 FEW
01:45 -3.8 °C -4.6 °C 1007.7 hPa West 1.6 km/h 8 km/h 94 % 0 mm WeatherDisplay:10.37 W/m2 FEW
01:50 -3.8 °C -4.6 °C 1008 hPa Calm   4.8 km/h 94 % 0 mm WeatherDisplay:10.37 W/m2 FEW
01:55 -3.8 °C -4.7 °C 1008 hPa Calm   3.2 km/h 94 % 0 mm WeatherDisplay:10.37 W/m2 FEW
02:00 -3.8 °C -4.7 °C 1008 hPa Calm   3.2 km/h 94 % 0 mm WeatherDisplay:10.37 W/m2 FEW
02:05 -3.8 °C -4.7 °C 1008 hPa Calm   3.2 km/h 94 % 0 mm WeatherDisplay:10.37 W/m2 FEW
02:10 -3.8 °C -4.7 °C 1008 hPa Calm   8 km/h 94 % 0 mm WeatherDisplay:10.37 W/m2 FEW
02:15 -3.8 °C -4.7 °C 1008.4 hPa Calm     94 % 0 mm WeatherDisplay:10.37 W/m2 FEW
02:20 -3.8 °C -4.6 °C 1008.4 hPa Calm   1.6 km/h 94 % 0 mm WeatherDisplay:10.37 W/m2 FEW
02:25 -3.8 °C -4.6 °C 1008.4 hPa Calm   1.6 km/h 94 % 0 mm WeatherDisplay:10.37 W/m2 FEW
02:30 -3.8 °C -4.6 °C 1008.4 hPa Calm   3.2 km/h 94 % 0 mm WeatherDisplay:10.37 W/m2 FEW
02:35 -3.7 °C -4.6 °C 1008.4 hPa Calm   1.6 km/h 94 % 0 mm WeatherDisplay:10.37 W/m2 FEW
02:45 -3.7 °C -4.6 °C 1008.4 hPa Calm     94 % 0 mm WeatherDisplay:10.37 W/m2 FEW
02:50 -3.7 °C -4.5 °C 1008.4 hPa Calm     94 % 0 mm WeatherDisplay:10.37 W/m2 FEW
02:55 -3.7 °C -4.5 °C 1008.4 hPa Calm   1.6 km/h 94 % 0 mm WeatherDisplay:10.37 W/m2 FEW
03:00 -3.7 °C -4.5 °C 1008.4 hPa Calm   1.6 km/h 94 % 0 mm WeatherDisplay:10.37 W/m2 FEW
03:05 -3.7 °C -4.5 °C 1008.4 hPa Calm     94 % 0 mm WeatherDisplay:10.37 W/m2 FEW
03:10 -3.7 °C -4.5 °C 1008.4 hPa Calm     94 % 0 mm WeatherDisplay:10.37 W/m2 FEW
03:15 -3.7 °C -4.5 °C 1008.4 hPa Calm     94 % 0 mm WeatherDisplay:10.37 W/m2 FEW
03:20 -3.7 °C -4.5 °C 1008.4 hPa Calm     94 % 0 mm WeatherDisplay:10.37 W/m2 FEW
03:25 -3.7 °C -4.5 °C 1008.7 hPa Calm     94 % 0 mm WeatherDisplay:10.37 W/m2 FEW
03:30 -3.7 °C -4.5 °C 1008.7 hPa Calm     94 % 0 mm WeatherDisplay:10.37 W/m2 FEW
03:35 -3.7 °C -4.5 °C 1009 hPa Calm     94 % 0 mm WeatherDisplay:10.37 W/m2 FEW
03:40 -3.7 °C -4.5 °C 1009 hPa Calm     94 % 0 mm WeatherDisplay:10.37 W/m2 FEW
03:45 -3.7 °C -4.5 °C 1009 hPa Calm     94 % 0 mm WeatherDisplay:10.37 W/m2 FEW
03:50 -3.7 °C -4.6 °C 1009 hPa Calm     94 % 0 mm WeatherDisplay:10.37 W/m2 FEW
03:55 -3.7 °C -4.6 °C 1009 hPa Calm     94 % 0 mm WeatherDisplay:10.37 W/m2 FEW
04:00 -3.7 °C -4.6 °C 1009.4 hPa Calm     94 % 0 mm WeatherDisplay:10.37 W/m2 FEW
04:05 -3.7 °C -4.5 °C 1009.4 hPa Calm     94 % 0 mm WeatherDisplay:10.37 W/m2 FEW
04:10 -3.7 °C -4.5 °C 1009.4 hPa Calm     94 % 0 mm WeatherDisplay:10.37 W/m2 FEW
04:15 -3.7 °C -4.5 °C 1009.4 hPa Calm     94 % 0 mm WeatherDisplay:10.37 W/m2 FEW
04:20 -3.7 °C -4.5 °C 1009.7 hPa Calm     94 % 0 mm WeatherDisplay:10.37 W/m2 FEW
04:25 -3.7 °C -4.5 °C 1009.7 hPa Calm     94 % 0 mm WeatherDisplay:10.37 W/m2 FEW
04:30 -3.7 °C -4.5 °C 1009.7 hPa Calm     94 % 0 mm WeatherDisplay:10.37 W/m2 FEW
04:35 -3.7 °C -4.4 °C 1009.7 hPa Calm     94 % 0 mm WeatherDisplay:10.37 W/m2 FEW
04:40 -3.6 °C -4.4 °C 1010 hPa Calm     94 % 0 mm WeatherDisplay:10.37 W/m2 FEW
04:45 -3.6 °C -4.4 °C 1010 hPa Calm     94 % 0 mm WeatherDisplay:10.37 W/m2 FEW
04:50 -3.6 °C -4.4 °C 1010 hPa Calm     94 % 0 mm WeatherDisplay:10.37 W/m2 FEW
04:55 -3.6 °C -4.4 °C 1010 hPa Calm   1.6 km/h 94 % 0 mm WeatherDisplay:10.37 W/m2 FEW
05:00 -3.5 °C -4.3 °C 1010.4 hPa Calm   1.6 km/h 94 % 0 mm WeatherDisplay:10.37 W/m2 FEW
05:05 -3.5 °C -4.3 °C 1010.4 hPa Calm     94 % 0 mm WeatherDisplay:10.37 W/m2 FEW
05:10 -3.4 °C -4.3 °C 1010.4 hPa Calm     94 % 0 mm WeatherDisplay:10.37 W/m2 FEW
05:15 -3.4 °C -4.3 °C 1010.4 hPa Calm     94 % 0 mm WeatherDisplay:10.37 W/m2 FEW
05:20 -3.4 °C -4.3 °C 1010.4 hPa Calm     94 % 0 mm WeatherDisplay:10.37 W/m2 FEW
05:25 -3.4 °C -4.2 °C 1010.7 hPa Calm     94 % 0 mm WeatherDisplay:10.37 W/m2 FEW
05:30 -3.4 °C -4.2 °C 1010.4 hPa Calm     94 % 0 mm WeatherDisplay:10.37 W/m2 FEW
05:35 -3.3 °C -4.2 °C 1010.7 hPa Calm     94 % 0 mm WeatherDisplay:10.37 W/m2 FEW
05:40 -3.3 °C -4.2 °C 1010.7 hPa Calm     94 % 0 mm WeatherDisplay:10.37 W/m2 FEW
05:45 -3.3 °C -4.1 °C 1011.1 hPa Calm   1.6 km/h 94 % 0 mm WeatherDisplay:10.37 W/m2 FEW
05:50 -3.3 °C -4.1 °C 1011.1 hPa Calm     94 % 0 mm WeatherDisplay:10.37 W/m2 FEW
06:00 -3.2 °C -4.1 °C 1011.1 hPa Calm     94 % 0 mm WeatherDisplay:10.37 W/m2 FEW
06:05 -3.2 °C -4.1 °C 1011.4 hPa Calm   1.6 km/h 94 % 0 mm WeatherDisplay:10.37 W/m2 FEW
06:10 -3.2 °C -4.1 °C 1011.4 hPa Calm     94 % 0 mm WeatherDisplay:10.37 W/m2 FEW
06:15 -3.2 °C -4.1 °C 1011.4 hPa Calm     94 % 0 mm WeatherDisplay:10.37 W/m2 FEW
06:20 -3.2 °C -4 °C 1011.7 hPa Calm     94 % 0 mm WeatherDisplay:10.37 W/m2 FEW
06:25 -3.2 °C -4 °C 1011.7 hPa Calm     94 % 0 mm WeatherDisplay:10.37 W/m2 FEW
06:30 -3.2 °C -3.9 °C 1011.7 hPa Calm     94 % 0 mm WeatherDisplay:10.37 W/m2 FEW
06:35 -3.1 °C -3.9 °C 1011.7 hPa Calm     94 % 0 mm WeatherDisplay:10.37 W/m2 FEW
06:40 -3.1 °C -3.9 °C 1011.7 hPa Calm     94 % 0 mm WeatherDisplay:10.37 W/m2 FEW
06:45 -3.1 °C -3.9 °C 1012.1 hPa Calm     94 % 0 mm WeatherDisplay:10.37 W/m2 FEW
06:50 -3.1 °C -3.9 °C 1012.1 hPa Calm     94 % 0 mm WeatherDisplay:10.37 W/m2 FEW
06:55 -3 °C -3.8 °C 1012.1 hPa Calm     94 % 0 mm WeatherDisplay:10.37 W/m2 FEW
07:00 -3 °C -3.7 °C 1012.1 hPa Calm     95 % 0 mm WeatherDisplay:10.37 W/m2 FEW
07:05 -3 °C -3.7 °C 1012.4 hPa Calm     95 % 0 mm WeatherDisplay:10.37 W/m2 FEW
07:10 -3 °C -3.7 °C 1012.1 hPa Calm     95 % 0 mm WeatherDisplay:10.37 W/m2 FEW
07:15 -2.9 °C -3.6 °C 1012.4 hPa Calm     95 % 0 mm WeatherDisplay:10.37 W/m2 FEW
07:20 -2.9 °C -3.6 °C 1012.8 hPa Calm     95 % 0 mm WeatherDisplay:10.37 W/m2 FEW
07:25 -2.9 °C -3.6 °C 1012.8 hPa Calm     95 % 0 mm WeatherDisplay:10.37 W/m2 FEW
07:30 -2.9 °C -3.6 °C 1012.8 hPa Calm     95 % 0 mm WeatherDisplay:10.37 W/m2 FEW
07:35 -2.9 °C -3.6 °C 1012.8 hPa Calm   1.6 km/h 95 % 0 mm WeatherDisplay:10.37 W/m2 FEW
07:40 -2.8 °C -3.6 °C 1012.8 hPa Calm   1.6 km/h 95 % 0 mm WeatherDisplay:10.37 W/m2 FEW
07:45 -2.8 °C -3.5 °C 1012.8 hPa Calm   1.6 km/h 95 % 0 mm WeatherDisplay:10.37 W/m2 FEW
07:50 -2.8 °C -3.4 °C 1013.1 hPa Calm     95 % 0 mm WeatherDisplay:10.37 W/m2 FEW
07:55 -2.7 °C -3.4 °C 1013.1 hPa Calm     95 % 0 mm WeatherDisplay:10.37 W/m2 FEW
08:00 -2.7 °C -3.4 °C 1013.4 hPa Calm     95 % 0 mm WeatherDisplay:10.37 W/m2 FEW
08:05 -2.7 °C -3.3 °C 1013.4 hPa Calm     95 % 0 mm WeatherDisplay:10.37 W/m2 FEW
08:10 -2.6 °C -3.3 °C 1013.4 hPa Calm     95 % 0 mm WeatherDisplay:10.37 W/m2 FEW
08:15 -2.6 °C -3.2 °C 1013.4 hPa Calm     95 % 0 mm WeatherDisplay:10.37 W/m2 FEW
08:20 -2.5 °C -3.2 °C 1013.4 hPa Calm     95 % 0 mm WeatherDisplay:10.37 W/m2 FEW
08:25 -2.4 °C -3.2 °C 1013.8 hPa Calm     95 % 0 mm WeatherDisplay:10.37 W/m2 FEW
08:30 -2.4 °C -3.1 °C 1013.8 hPa Calm     95 % 0 mm WeatherDisplay:10.37 W/m2 FEW
08:35 -2.4 °C -3.1 °C 1013.8 hPa Calm   1.6 km/h 95 % 0 mm WeatherDisplay:10.37 W/m2 FEW
08:40 -2.3 °C -3.1 °C 1013.8 hPa Calm   1.6 km/h 95 % 0 mm WeatherDisplay:10.37 W/m2 FEW
08:45 -2.3 °C -3 °C 1013.8 hPa Calm   3.2 km/h 95 % 0 mm WeatherDisplay:10.37 W/m2 FEW
08:50 -2.2 °C -2.9 °C 1013.8 hPa Calm   3.2 km/h 95 % 0 mm WeatherDisplay:10.37 W/m2 FEW
08:55 -2.1 °C -2.8 °C 1013.8 hPa Calm   3.2 km/h 95 % 0 mm WeatherDisplay:10.37 W/m2 FEW
09:00 -1.9 °C -2.6 °C 1013.8 hPa Calm   3.2 km/h 95 % 0 mm WeatherDisplay:10.37 W/m2 FEW
09:05 -1.8 °C -2.5 °C 1013.8 hPa Calm   1.6 km/h 95 % 0 mm WeatherDisplay:10.37 W/m2 FEW
09:10 -1.6 °C -2.3 °C 1014.1 hPa Calm   1.6 km/h 95 % 0 mm WeatherDisplay:10.37 W/m2 FEW
09:15 -1.5 °C -2.2 °C 1014.1 hPa Calm   3.2 km/h 95 % 0 mm WeatherDisplay:10.37 W/m2 FEW
09:20 -1.3 °C -1.9 °C 1014.1 hPa Calm   3.2 km/h 96 % 0 mm WeatherDisplay:10.37 W/m2 FEW
09:30 -0.9 °C -1.5 °C 1014.1 hPa Calm   3.2 km/h 96 % 0 mm WeatherDisplay:10.37 W/m2 FEW
09:35 -0.8 °C -1.3 °C 1014.1 hPa Calm   4.8 km/h 96 % 0 mm WeatherDisplay:10.37 W/m2 FEW
09:40 -0.6 °C -1.2 °C 1014.1 hPa Calm   3.2 km/h 96 % 0 mm WeatherDisplay:10.37 W/m2 FEW
09:45 -0.5 °C -1.1 °C 1014.1 hPa Calm     96 % 0 mm WeatherDisplay:10.37 W/m2 FEW
09:50 -0.3 °C -0.9 °C 1014.1 hPa Calm   6.4 km/h 96 % 0 mm WeatherDisplay:10.37 W/m2 FEW
09:55 -0.2 °C -0.7 °C 1014.1 hPa Calm   1.6 km/h 96 % 0 mm WeatherDisplay:10.37 W/m2 FEW
10:00 0 °C -0.6 °C 1014.1 hPa Calm   3.2 km/h 96 % 0 mm WeatherDisplay:10.37 W/m2 FEW
10:05 0.1 °C -0.4 °C 1014.4 hPa Calm   1.6 km/h 96 % 0 mm WeatherDisplay:10.37 W/m2 FEW
10:10 0.3 °C -0.3 °C 1014.1 hPa Calm   4.8 km/h 96 % 0 mm WeatherDisplay:10.37 W/m2 FEW
10:20 0.6 °C 0 °C 1014.4 hPa Calm   4.8 km/h 96 % 0 mm WeatherDisplay:10.37 W/m2 FEW
10:25 0.7 °C 0.1 °C 1014.4 hPa West 1.6 km/h 4.8 km/h 96 % 0 mm WeatherDisplay:10.37 W/m2 FEW
10:30 0.7 °C 0.2 °C 1014.4 hPa WNW 1.6 km/h 11.3 km/h 96 % 0 mm WeatherDisplay:10.37 W/m2 FEW
10:35 0.8 °C 0.1 °C 1014.4 hPa WNW 1.6 km/h 11.3 km/h 95 % 0 mm WeatherDisplay:10.37 W/m2 FEW
10:40 0.9 °C 0.2 °C 1014.1 hPa Calm   9.7 km/h 95 % 0 mm WeatherDisplay:10.37 W/m2 FEW
10:45 0.9 °C 0.2 °C 1014.4 hPa NW 3.2 km/h 8 km/h 95 % 0 mm WeatherDisplay:10.37 W/m2 FEW
10:50 0.9 °C 0.2 °C 1014.1 hPa NW 1.6 km/h 14.5 km/h 95 % 0 mm WeatherDisplay:10.37 W/m2 FEW
10:55 0.9 °C 0.1 °C 1014.4 hPa NW 3.2 km/h 16.1 km/h 94 % 0 mm WeatherDisplay:10.37 W/m2 FEW
11:00 1 °C 0.2 °C 1014.4 hPa NW 1.6 km/h 8 km/h 94 % 0 mm WeatherDisplay:10.37 W/m2 FEW
11:05 1.1 °C 0.2 °C 1014.4 hPa NW 1.6 km/h 11.3 km/h 94 % 0 mm WeatherDisplay:10.37 W/m2 FEW
11:10 1.1 °C 0.1 °C 1014.4 hPa WNW 9.7 km/h 19.3 km/h 93 % 0 mm WeatherDisplay:10.37 W/m2 FEW
11:15 1 °C -0.2 °C 1014.4 hPa NW 8 km/h 16.1 km/h 92 % 0 mm WeatherDisplay:10.37 W/m2 FEW
11:20 1 °C -0.2 °C 1014.4 hPa NW 1.6 km/h 9.7 km/h 92 % 0 mm WeatherDisplay:10.37 W/m2 FEW
11:25 1 °C -0.2 °C 1014.4 hPa NW 3.2 km/h 16.1 km/h 92 % 0 mm WeatherDisplay:10.37 W/m2 FEW
11:30 1 °C -0.2 °C 1014.4 hPa NW 4.8 km/h 12.9 km/h 92 % 0 mm WeatherDisplay:10.37 W/m2 FEW
11:35 0.9 °C -0.2 °C 1014.4 hPa NW 9.7 km/h 14.5 km/h 92 % 0 mm WeatherDisplay:10.37 W/m2 FEW
11:40 0.9 °C -0.4 °C 1014.4 hPa NW 4.8 km/h 16.1 km/h 91 % 0 mm WeatherDisplay:10.37 W/m2 FEW
11:45 0.9 °C -0.4 °C 1014.8 hPa NW 1.6 km/h 11.3 km/h 91 % 0 mm WeatherDisplay:10.37 W/m2 FEW
11:50 0.9 °C -0.3 °C 1014.8 hPa NW 4.8 km/h 14.5 km/h 91 % 0 mm WeatherDisplay:10.37 W/m2 FEW
11:55 0.9 °C -0.4 °C 1014.8 hPa NW 8 km/h 19.3 km/h 91 % 0 mm WeatherDisplay:10.37 W/m2 FEW
12:00 0.9 °C -0.4 °C 1014.8 hPa NW 1.6 km/h 9.7 km/h 91 % 0 mm WeatherDisplay:10.37 W/m2 FEW
12:05 0.9 °C -0.4 °C 1014.8 hPa NW 9.7 km/h 16.1 km/h 91 % 0 mm WeatherDisplay:10.37 W/m2 FEW
12:10 0.9 °C -0.4 °C 1014.8 hPa NW 8 km/h 19.3 km/h 91 % 0 mm WeatherDisplay:10.37 W/m2 FEW
12:15 0.9 °C -0.4 °C 1014.8 hPa NW 3.2 km/h 16.1 km/h 91 % 0 mm WeatherDisplay:10.37 W/m2 FEW
12:20 0.9 °C -0.6 °C 1014.8 hPa NW 4.8 km/h 16.1 km/h 90 % 0 mm WeatherDisplay:10.37 W/m2 FEW
12:25 0.9 °C -0.6 °C 1014.8 hPa NNW 3.2 km/h 16.1 km/h 90 % 0 mm WeatherDisplay:10.37 W/m2 FEW
12:30 0.9 °C -0.6 °C 1014.8 hPa NW 3.2 km/h 16.1 km/h 90 % 0 mm WeatherDisplay:10.37 W/m2 FEW
12:35 0.9 °C -0.6 °C 1014.8 hPa NW 9.7 km/h 19.3 km/h 90 % 0 mm WeatherDisplay:10.37 W/m2 FEW
12:40 0.9 °C -0.6 °C 1014.8 hPa NW 1.6 km/h 9.7 km/h 90 % 0 mm WeatherDisplay:10.37 W/m2 FEW
12:45 0.9 °C -0.6 °C 1014.8 hPa NW 3.2 km/h 14.5 km/h 90 % 0 mm WeatherDisplay:10.37 W/m2 FEW
12:50 0.9 °C -0.6 °C 1014.8 hPa NW 4.8 km/h 14.5 km/h 90 % 0 mm WeatherDisplay:10.37 W/m2 FEW
12:55 0.8 °C -0.6 °C 1015.1 hPa NNW 3.2 km/h 14.5 km/h 90 % 0 mm WeatherDisplay:10.37 W/m2 FEW
13:00 0.7 °C -0.7 °C 1015.1 hPa NNW 9.7 km/h 19.3 km/h 90 % 0 mm WeatherDisplay:10.37 W/m2 FEW
13:05 0.6 °C -0.8 °C 1015.1 hPa NNW 4.8 km/h 16.1 km/h 90 % 0 mm WeatherDisplay:10.37 W/m2 FEW
13:10 0.6 °C -0.9 °C 1015.1 hPa NNW 4.8 km/h 14.5 km/h 90 % 0 mm WeatherDisplay:10.37 W/m2 FEW
13:15 0.4 °C -1 °C 1015.1 hPa NNW 3.2 km/h 11.3 km/h 90 % 0 mm WeatherDisplay:10.37 W/m2 FEW
13:20 0.4 °C -1.1 °C 1015.1 hPa NNW 1.6 km/h 11.3 km/h 90 % 0 mm WeatherDisplay:10.37 W/m2 FEW
13:25 0.3 °C -1.1 °C 1015.1 hPa NW 3.2 km/h 16.1 km/h 90 % 0 mm WeatherDisplay:10.37 W/m2 FEW
13:30 0.3 °C -1.2 °C 1015.1 hPa NW 3.2 km/h 14.5 km/h 90 % 0 mm WeatherDisplay:10.37 W/m2 FEW
13:35 0.3 °C -1.3 °C 1015.1 hPa NW 3.2 km/h 12.9 km/h 89 % 0 mm WeatherDisplay:10.37 W/m2 FEW
13:45 0.3 °C -1.3 °C 1015.5 hPa NW 8 km/h 16.1 km/h 89 % 0 mm WeatherDisplay:10.37 W/m2 FEW
13:50 0.2 °C -1.5 °C 1015.8 hPa NNW 4.8 km/h 19.3 km/h 88 % 0 mm WeatherDisplay:10.37 W/m2 FEW
13:55 0.2 °C -1.6 °C 1015.8 hPa NW 8 km/h 12.9 km/h 88 % 0 mm WeatherDisplay:10.37 W/m2 FEW
14:00 0.3 °C -1.6 °C 1015.8 hPa Calm   8 km/h 87 % 0 mm WeatherDisplay:10.37 W/m2 FEW
14:05 0.3 °C -1.6 °C 1015.8 hPa NW 1.6 km/h 12.9 km/h 87 % 0 mm WeatherDisplay:10.37 W/m2 FEW
14:10 0.3 °C -1.6 °C 1015.8 hPa NW 4.8 km/h 14.5 km/h 87 % 0 mm WeatherDisplay:10.37 W/m2 FEW
14:15 0.3 °C -1.8 °C 1015.8 hPa NW 8 km/h 19.3 km/h 86 % 0 mm WeatherDisplay:10.37 W/m2 FEW
14:20 0.2 °C -2 °C 1015.8 hPa NW 3.2 km/h 22.5 km/h 85 % 0 mm WeatherDisplay:10.37 W/m2 FEW
14:25 0.2 °C -2 °C 1015.8 hPa NW 4.8 km/h 14.5 km/h 85 % 0 mm WeatherDisplay:10.37 W/m2 FEW
15:30 -0.2 °C -2.9 °C 1016.8 hPa NNW 9.7 km/h 19.3 km/h 82 % 0 mm WeatherDisplay:10.37 W/m2 FEW
15:35 -0.3 °C -3.2 °C 1016.8 hPa NNW 8 km/h 16.1 km/h 81 % 0 mm WeatherDisplay:10.37 W/m2 FEW
15:40 -0.5 °C -3.4 °C 1016.8 hPa NNW 9.7 km/h 19.3 km/h 81 % 0 mm WeatherDisplay:10.37 W/m2 FEW
15:45 -0.6 °C -3.3 °C 1017.2 hPa NNW 4.8 km/h 12.9 km/h 82 % 0 mm WeatherDisplay:10.37 W/m2 FEW
15:50 -0.7 °C -3.4 °C 1017.2 hPa NNW 3.2 km/h 8 km/h 82 % 0 mm WeatherDisplay:10.37 W/m2 FEW
15:55 -0.8 °C -3.5 °C 1017.5 hPa NW 3.2 km/h 19.3 km/h 82 % 0 mm WeatherDisplay:10.37 W/m2 FEW
16:00 -0.9 °C -3.8 °C 1017.5 hPa NW 8 km/h 19.3 km/h 81 % 0 mm WeatherDisplay:10.37 W/m2 FEW
16:05 -1.1 °C -3.9 °C 1017.5 hPa NW 8 km/h 16.1 km/h 81 % 0 mm WeatherDisplay:10.37 W/m2 FEW
16:10 -1.2 °C -4 °C 1017.5 hPa NW 8 km/h 14.5 km/h 81 % 0 mm WeatherDisplay:10.37 W/m2 FEW
16:15 -1.3 °C -4.1 °C 1017.8 hPa NW 1.6 km/h 14.5 km/h 81 % 0 mm WeatherDisplay:10.37 W/m2 FEW
16:20 -1.3 °C -4.2 °C 1017.8 hPa NW 1.6 km/h 14.5 km/h 81 % 0 mm WeatherDisplay:10.37 W/m2 FEW
16:25 -1.4 °C -4.3 °C 1017.8 hPa Calm   9.7 km/h 81 % 0 mm WeatherDisplay:10.37 W/m2 FEW
16:30 -1.5 °C -4.2 °C 1017.8 hPa Calm   3.2 km/h 82 % 0 mm WeatherDisplay:10.37 W/m2 FEW
16:35 -1.6 °C -4.2 °C 1018.2 hPa NNW 1.6 km/h 16.1 km/h 82 % 0 mm WeatherDisplay:10.37 W/m2 FEW
16:40 -1.6 °C -4.1 °C 1018.2 hPa NNW 1.6 km/h 9.7 km/h 83 % 0 mm WeatherDisplay:10.37 W/m2 FEW
16:45 -1.7 °C -4.2 °C 1018.5 hPa NNW 1.6 km/h 8 km/h 83 % 0 mm WeatherDisplay:10.37 W/m2 FEW
16:50 -1.8 °C -4.1 °C 1018.5 hPa NW 1.6 km/h 11.3 km/h 84 % 0 mm WeatherDisplay:10.37 W/m2 FEW
16:55 -1.9 °C -4.2 °C 1018.8 hPa NNW 1.6 km/h 12.9 km/h 84 % 0 mm WeatherDisplay:10.37 W/m2 FEW
17:05 -2.1 °C -4.4 °C 1018.8 hPa NNW 1.6 km/h 9.7 km/h 84 % 0 mm WeatherDisplay:10.37 W/m2 FEW
17:10 -2.1 °C -4.4 °C 1018.8 hPa NNW 1.6 km/h 12.9 km/h 84 % 0 mm WeatherDisplay:10.37 W/m2 FEW
17:15 -2.2 °C -4.6 °C 1018.8 hPa NNW 4.8 km/h 14.5 km/h 84 % 0 mm WeatherDisplay:10.37 W/m2 FEW
17:20 -2.3 °C -4.6 °C 1019.2 hPa NW 1.6 km/h 9.7 km/h 84 % 0 mm WeatherDisplay:10.37 W/m2 FEW
17:25 -2.3 °C -4.7 °C 1019.2 hPa NW 8 km/h 16.1 km/h 84 % 0 mm WeatherDisplay:10.37 W/m2 FEW
17:30 -2.4 °C -4.9 °C 1019.5 hPa NW 4.8 km/h 16.1 km/h 83 % 0 mm WeatherDisplay:10.37 W/m2 FEW
17:35 -2.5 °C -5 °C 1019.5 hPa NW 8 km/h 16.1 km/h 83 % 0 mm WeatherDisplay:10.37 W/m2 FEW
17:40 -2.6 °C -5.1 °C 1019.5 hPa NW 3.2 km/h 16.1 km/h 83 % 0 mm WeatherDisplay:10.37 W/m2 FEW
17:45 -2.7 °C -5 °C 1019.9 hPa NW 1.6 km/h 12.9 km/h 84 % 0 mm WeatherDisplay:10.37 W/m2 FEW
17:50 -2.7 °C -5.1 °C 1019.9 hPa NW 3.2 km/h 11.3 km/h 84 % 0 mm WeatherDisplay:10.37 W/m2 FEW
17:55 -2.8 °C -5.1 °C 1019.9 hPa NW 1.6 km/h 14.5 km/h 84 % 0 mm WeatherDisplay:10.37 W/m2 FEW
18:05 -3 °C -5.3 °C 1020.2 hPa NW 3.2 km/h 9.7 km/h 84 % 0 mm WeatherDisplay:10.37 W/m2 FEW
18:10 -3.1 °C -5.6 °C 1020.2 hPa NW 9.7 km/h 16.1 km/h 83 % 0 mm WeatherDisplay:10.37 W/m2 FEW
18:15 -3.2 °C -5.7 °C 1020.2 hPa NW 8 km/h 16.1 km/h 83 % 0 mm WeatherDisplay:10.37 W/m2 FEW
18:20 -3.2 °C -5.7 °C 1020.2 hPa NNW 4.8 km/h 11.3 km/h 83 % 0 mm WeatherDisplay:10.37 W/m2 FEW
18:25 -3.3 °C -5.8 °C 1020.5 hPa NW 3.2 km/h 16.1 km/h 83 % 0 mm WeatherDisplay:10.37 W/m2 FEW
18:30 -3.4 °C -5.9 °C 1020.5 hPa NW 4.8 km/h 14.5 km/h 83 % 0 mm WeatherDisplay:10.37 W/m2 FEW
18:35 -3.5 °C -5.9 °C 1020.5 hPa NW 3.2 km/h 11.3 km/h 83 % 0 mm WeatherDisplay:10.37 W/m2 FEW
18:40 -3.6 °C -6 °C 1020.5 hPa NW 8 km/h 12.9 km/h 83 % 0 mm WeatherDisplay:10.37 W/m2 FEW
18:45 -3.7 °C -6.1 °C 1020.9 hPa NW 3.2 km/h 11.3 km/h 83 % 0 mm WeatherDisplay:10.37 W/m2 FEW
18:50 -3.7 °C -6.2 °C 1020.9 hPa NNW 3.2 km/h 11.3 km/h 83 % 0 mm WeatherDisplay:10.37 W/m2 FEW
18:55 -3.8 °C -6.3 °C 1020.9 hPa NNW 3.2 km/h 9.7 km/h 83 % 0 mm WeatherDisplay:10.37 W/m2 FEW
19:00 -3.9 °C -6.5 °C 1021.2 hPa NW 3.2 km/h 14.5 km/h 82 % 0 mm WeatherDisplay:10.37 W/m2 FEW
19:05 -4 °C -6.6 °C 1021.2 hPa NNW 8 km/h 12.9 km/h 82 % 0 mm WeatherDisplay:10.37 W/m2 FEW
19:10 -4.1 °C -6.7 °C 1021.2 hPa NNW 3.2 km/h 12.9 km/h 82 % 0 mm WeatherDisplay:10.37 W/m2 FEW
19:15 -4.2 °C -6.8 °C 1021.2 hPa NNW 4.8 km/h 12.9 km/h 82 % 0 mm WeatherDisplay:10.37 W/m2 FEW
19:20 -4.3 °C -6.9 °C 1021.2 hPa NNW 3.2 km/h 9.7 km/h 82 % 0 mm WeatherDisplay:10.37 W/m2 FEW
19:25 -4.3 °C -6.9 °C 1021.2 hPa NNW 3.2 km/h 9.7 km/h 82 % 0 mm WeatherDisplay:10.37 W/m2 FEW
19:30 -4.4 °C -7.1 °C 1021.6 hPa NNW 3.2 km/h 12.9 km/h 82 % 0 mm WeatherDisplay:10.37 W/m2 FEW
19:35 -4.6 °C -7.2 °C 1021.6 hPa NNW 3.2 km/h 11.3 km/h 82 % 0 mm WeatherDisplay:10.37 W/m2 FEW
19:40 -4.6 °C -7.2 °C 1021.6 hPa NNW 1.6 km/h 11.3 km/h 82 % 0 mm WeatherDisplay:10.37 W/m2 FEW
19:45 -4.7 °C -7.3 °C 1021.6 hPa Calm   11.3 km/h 82 % 0 mm WeatherDisplay:10.37 W/m2 FEW
19:50 -4.8 °C -7.4 °C 1021.9 hPa NW 1.6 km/h 9.7 km/h 82 % 0 mm WeatherDisplay:10.37 W/m2 FEW
19:55 -4.8 °C -7.4 °C 1021.9 hPa NW 1.6 km/h 9.7 km/h 82 % 0 mm WeatherDisplay:10.37 W/m2 FEW
20:00 -4.9 °C -7.6 °C 1021.9 hPa NW 1.6 km/h 12.9 km/h 82 % 0 mm WeatherDisplay:10.37 W/m2 FEW
20:05 -5 °C -7.8 °C 1021.9 hPa Calm   6.4 km/h 81 % 0 mm WeatherDisplay:10.37 W/m2 FEW
20:10 -5.1 °C -7.8 °C 1021.9 hPa NW 1.6 km/h 6.4 km/h 81 % 0 mm WeatherDisplay:10.37 W/m2 FEW
20:15 -5.2 °C -7.9 °C 1021.9 hPa NW 1.6 km/h 8 km/h 81 % 0 mm WeatherDisplay:10.37 W/m2 FEW
20:20 -5.3 °C -7.9 °C 1022.2 hPa NW 1.6 km/h 8 km/h 82 % 0 mm WeatherDisplay:10.37 W/m2 FEW
20:25 -5.3 °C -7.9 °C 1022.2 hPa Calm   3.2 km/h 82 % 0 mm WeatherDisplay:10.37 W/m2 FEW
20:30 -5.4 °C -8 °C 1022.2 hPa NW 1.6 km/h 3.2 km/h 82 % 0 mm WeatherDisplay:10.37 W/m2 FEW
20:35 -5.5 °C -8.1 °C 1022.6 hPa Calm   6.4 km/h 82 % 0 mm WeatherDisplay:10.37 W/m2 FEW
20:40 -5.6 °C -8.2 °C 1022.6 hPa Calm   3.2 km/h 82 % 0 mm WeatherDisplay:10.37 W/m2 FEW
20:45 -5.6 °C -8.1 °C 1022.6 hPa Calm     83 % 0 mm WeatherDisplay:10.37 W/m2 FEW
20:50 -5.7 °C -8.3 °C 1022.6 hPa Calm   3.2 km/h 82 % 0 mm WeatherDisplay:10.37 W/m2 FEW
20:55 -5.8 °C -8.2 °C 1022.6 hPa Calm   1.6 km/h 83 % 0 mm WeatherDisplay:10.37 W/m2 FEW
21:00 -5.9 °C -8.3 °C 1022.9 hPa Calm     83 % 0 mm WeatherDisplay:10.37 W/m2 FEW
21:05 -6.1 °C -8.6 °C 1022.9 hPa Calm   1.6 km/h 82 % 0 mm WeatherDisplay:10.37 W/m2 FEW
21:10 -6.2 °C -8.6 °C 1022.9 hPa Calm   1.6 km/h 83 % 0 mm WeatherDisplay:10.37 W/m2 FEW
21:15 -6.4 °C -8.8 °C 1022.9 hPa Calm   1.6 km/h 83 % 0 mm WeatherDisplay:10.37 W/m2 FEW
21:20 -6.5 °C -8.9 °C 1022.9 hPa NNW 3.2 km/h 11.3 km/h 83 % 0 mm WeatherDisplay:10.37 W/m2 FEW
21:25 -6.7 °C -9 °C 1023.2 hPa NNW 1.6 km/h 11.3 km/h 84 % 0 mm WeatherDisplay:10.37 W/m2 FEW
21:30 -6.8 °C -8.9 °C 1023.2 hPa NNW 1.6 km/h 6.4 km/h 85 % 0 mm WeatherDisplay:10.37 W/m2 FEW
21:35 -6.8 °C -8.7 °C 1023.2 hPa NNW 3.2 km/h 11.3 km/h 86 % 0 mm WeatherDisplay:10.37 W/m2 FEW
21:40 -6.7 °C -8.7 °C 1023.6 hPa NW 3.2 km/h 8 km/h 86 % 0 mm WeatherDisplay:10.37 W/m2 FEW
21:45 -6.7 °C -8.7 °C 1023.6 hPa NNW 4.8 km/h 11.3 km/h 86 % 0 mm WeatherDisplay:10.37 W/m2 FEW
21:50 -6.7 °C -8.5 °C 1023.6 hPa NW 3.2 km/h 9.7 km/h 87 % 0 mm WeatherDisplay:10.37 W/m2 FEW
21:55 -6.7 °C -8.4 °C 1023.6 hPa NW 1.6 km/h 8 km/h 87 % 0 mm WeatherDisplay:10.37 W/m2 FEW
22:00 -6.7 °C -8.4 °C 1023.6 hPa NW 1.6 km/h 6.4 km/h 87 % 0 mm WeatherDisplay:10.37 W/m2 FEW
22:05 -6.7 °C -8.5 °C 1023.6 hPa Calm   4.8 km/h 87 % 0 mm WeatherDisplay:10.37 W/m2 FEW
22:10 -6.7 °C -8.5 °C 1023.6 hPa Calm   1.6 km/h 87 % 0 mm WeatherDisplay:10.37 W/m2 FEW
22:15 -6.7 °C -8.5 °C 1023.6 hPa Calm   1.6 km/h 87 % 0 mm WeatherDisplay:10.37 W/m2 FEW
22:20 -6.8 °C -8.6 °C 1023.6 hPa Calm     87 % 0 mm WeatherDisplay:10.37 W/m2 FEW
22:25 -6.8 °C -8.8 °C 1023.6 hPa Calm     86 % 0 mm WeatherDisplay:10.37 W/m2 FEW
22:30 -6.9 °C -8.8 °C 1023.6 hPa Calm   3.2 km/h 86 % 0 mm WeatherDisplay:10.37 W/m2 FEW
22:35 -7 °C -8.9 °C 1023.6 hPa Calm   3.2 km/h 86 % 0 mm WeatherDisplay:10.37 W/m2 FEW
22:40 -7.1 °C -9 °C 1023.9 hPa Calm     86 % 0 mm WeatherDisplay:10.37 W/m2 FEW
22:45 -7.2 °C -9.1 °C 1023.9 hPa Calm     86 % 0 mm WeatherDisplay:10.37 W/m2 FEW
22:50 -7.2 °C -9.2 °C 1023.9 hPa Calm     86 % 0 mm WeatherDisplay:10.37 W/m2 FEW
22:55 -7.3 °C -9.3 °C 1023.9 hPa Calm     86 % 0 mm WeatherDisplay:10.37 W/m2 FEW
23:00 -7.4 °C -9.6 °C 1023.9 hPa Calm     85 % 0 mm WeatherDisplay:10.37 W/m2 FEW
23:05 -7.6 °C -9.7 °C 1024.3 hPa Calm     85 % 0 mm WeatherDisplay:10.37 W/m2 FEW
23:10 -7.7 °C -9.8 °C 1024.3 hPa Calm     85 % 0 mm WeatherDisplay:10.37 W/m2 FEW
23:15 -7.8 °C -9.9 °C 1024.3 hPa Calm     85 % 0 mm WeatherDisplay:10.37 W/m2 FEW
23:20 -8 °C -10.1 °C 1024.3 hPa Calm     85 % 0 mm WeatherDisplay:10.37 W/m2 FEW
23:25 -8.1 °C -10.2 °C 1024.3 hPa Calm     85 % 0 mm WeatherDisplay:10.37 W/m2 FEW
23:30 -8.3 °C -10.3 °C 1024.3 hPa Calm     85 % 0 mm WeatherDisplay:10.37 W/m2 FEW
23:35 -8.4 °C -10.6 °C 1024.3 hPa Calm   4.8 km/h 85 % 0 mm WeatherDisplay:10.37 W/m2 FEW
23:40 -8.6 °C -10.7 °C 1024.3 hPa Calm   3.2 km/h 85 % 0 mm WeatherDisplay:10.37 W/m2 FEW
23:45 -8.8 °C -10.9 °C 1024.3 hPa Calm   3.2 km/h 85 % 0 mm WeatherDisplay:10.37 W/m2 FEW
23:50 -8.9 °C -10.8 °C 1024.3 hPa Calm     86 % 0 mm WeatherDisplay:10.37 W/m2 FEW
23:55 -9 °C -10.9 °C 1024.3 hPa Calm   1.6 km/h 86 % 0 mm WeatherDisplay:10.37 W/m2 FEW
Juneau County Weather
Compliments of Weather Underground - 2.75 mb